Total_Precipitation_Accumulation
2.42 2.50 2.49 2.42 2.23 2.57 3.01 3.26 2.96 3.23 3.22 2.81 2.49 2.38 2.34 2.28 2.47 2.69 2.53 2.66 2.59 2.56 2.84 2.94 2.74 2.49 2.30 1.95 1.67 1.47 1.27 1.18 1.09 0.89 0.75 0.73 0.68 0.62 0.59 0.58 0.56 0.52 0.49
2.98 3.04 2.87 2.78 2.46 2.46 2.75 3.00 3.01 3.35 3.19 3.02 2.42 2.36 2.30 2.39 2.56 2.61 2.57 3.02 2.97 2.71 2.74 2.96 3.06 2.94 2.75 2.56 2.21 1.89 1.64 1.49 1.38 1.09 0.85 0.78 0.75 0.70 0.66 0.68 0.73 0.66 0.53
3.48 3.36 3.15 2.78 2.60 2.63 2.78 2.74 2.79 2.91 2.80 2.72 2.46 2.52 2.48 2.40 2.32 2.38 2.49 2.71 2.63 2.42 2.45 2.62 2.95 3.18 3.34 3.34 3.07 2.82 2.31 1.85 1.63 1.34 1.04 0.85 0.75 0.69 0.68 0.71 0.78 0.75 0.61
3.31 3.31 3.01 2.61 2.66 2.70 2.71 2.78 2.65 2.72 2.75 2.78 2.72 2.50 2.56 2.52 2.12 2.13 2.22 2.20 2.31 2.10 2.26 2.42 2.61 2.88 3.43 3.93 4.17 4.08 3.43 2.57 2.03 1.70 1.42 1.14 0.94 0.80 0.72 0.72 0.80 0.79 0.62
3.12 3.26 2.96 2.83 2.78 2.75 2.60 2.36 2.72 2.91 2.93 2.91 2.59 2.45 2.23 2.05 1.84 1.69 1.68 1.55 1.75 1.96 2.18 2.26 2.43 2.56 3.12 4.01 4.83 5.09 4.66 3.68 2.90 2.38 2.08 1.78 1.50 1.23 1.00 0.92 0.88 0.81 0.70
2.84 3.04 2.76 2.70 2.82 2.89 2.69 2.66 2.93 2.99 2.72 2.76 2.41 2.28 2.10 1.73 1.63 1.55 1.42 1.39 1.40 1.37 1.71 2.17 2.56 2.31 2.65 3.37 4.07 4.71 5.12 4.76 3.90 3.26 2.76 2.38 2.11 1.81 1.43 1.26 1.15 1.04 0.95
2.48 2.82 2.58 2.84 2.72 2.62 2.45 2.40 2.51 2.56 2.32 2.54 2.76 2.28 1.77 1.51 1.44 1.34 1.33 1.40 1.33 1.41 1.73 2.18 2.47 2.61 2.44 2.41 2.79 3.34 4.38 4.82 4.53 3.95 3.44 2.98 2.59 2.28 1.84 1.57 1.40 1.23 1.15
2.56 2.42 2.59 2.42 2.38 2.46 2.28 2.17 2.36 2.36 2.13 2.47 2.59 2.54 1.97 1.74 1.49 1.07 1.18 1.31 1.40 1.63 1.70 1.85 2.24 2.55 2.46 2.72 2.29 2.20 3.14 4.02 4.61 4.58 4.05 3.42 2.91 2.48 2.10 1.87 1.62 1.35 1.20
2.74 2.61 2.50 2.31 2.25 2.08 2.16 2.20 2.26 2.30 2.22 2.22 2.28 2.47 2.11 1.75 1.47 1.13 1.14 1.35 1.65 1.87 1.85 1.93 1.96 2.17 2.22 2.52 2.50 2.29 2.25 2.68 3.54 4.46 4.59 3.96 3.16 2.52 2.14 2.10 2.00 1.72 1.47
2.88 2.62 2.45 2.24 2.07 1.93 2.12 1.85 1.96 2.25 2.34 2.08 2.08 2.05 1.97 2.05 1.97 1.59 1.27 1.19 1.45 1.66 1.75 1.66 1.73 1.90 2.11 2.38 2.51 2.55 2.30 2.22 2.67 3.61 4.23 4.21 3.69 3.04 2.58 2.52 2.75 2.64 2.15
2.65 2.36 2.25 2.18 2.03 1.89 1.89 1.85 2.11 2.14 2.11 2.05 2.11 2.08 2.18 2.31 2.13 1.97 1.65 1.56 1.67 1.65 1.61 1.58 1.63 1.77 2.00 2.28 2.59 2.63 2.85 2.53 2.36 2.58 3.05 3.44 3.62 3.39 3.06 3.11 3.62 3.89 3.52
2.32 2.16 2.07 2.12 1.98 1.85 1.84 1.85 1.99 2.05 2.15 2.24 2.24 2.20 2.24 2.22 2.24 2.44 2.12 1.92 1.88 1.66 1.63 1.65 1.73 1.85 1.98 2.20 2.25 2.46 2.62 2.68 2.54 2.45 2.51 2.66 2.93 3.16 3.29 3.50 3.89 4.30 4.49
1.86 1.87 1.94 2.03 1.87 1.81 1.88 2.02 2.02 1.98 2.12 2.22 2.15 2.20 2.27 2.21 2.34 2.54 2.47 2.16 2.00 1.79 1.84 1.83 1.80 2.00 2.03 2.31 2.55 2.49 2.23 2.30 2.26 2.21 2.19 2.21 2.26 2.52 2.80 3.02 3.43 3.89 4.33
1.66 1.72 1.91 1.97 1.89 1.82 1.80 2.12 2.12 2.12 2.20 2.18 2.08 2.35 2.40 2.20 2.39 2.62 2.74 2.75 2.46 2.30 2.36 2.35 2.09 2.05 2.15 2.28 2.52 2.39 2.16 2.15 1.86 1.77 1.75 1.80 1.83 1.92 2.06 2.26 2.54 2.82 3.12
1.73 1.80 1.87 2.04 2.12 2.17 2.19 2.34 2.26 2.25 2.43 2.41 2.36 2.51 2.50 2.36 2.39 2.51 2.78 2.98 2.99 2.81 2.70 2.63 2.35 2.22 2.17 2.14 2.28 2.16 2.24 2.14 1.71 1.46 1.38 1.38 1.36 1.38 1.44 1.58 1.77 1.98 2.14
1.84 1.88 1.89 1.95 2.06 2.17 2.26 2.41 2.39 2.45 2.62 2.64 2.68 2.76 2.63 2.40 2.49 2.55 2.71 2.98 3.23 3.25 3.00 2.64 2.42 2.29 2.28 2.02 2.06 1.87 1.91 1.82 1.50 1.34 1.25 1.20 1.16 1.13 1.15 1.22 1.33 1.52 1.65
1.82 1.87 1.88 1.85 1.84 1.98 2.20 2.40 2.38 2.52 2.64 2.70 2.70 2.61 2.49 2.53 2.67 2.61 2.74 2.89 3.11 3.32 3.08 2.76 2.62 2.56 2.54 2.34 2.17 1.88 1.64 1.51 1.39 1.45 1.30 1.17 1.12 1.11 1.14 1.20 1.26 1.37 1.48
1.89 1.85 1.84 1.81 1.77 1.87 2.13 2.32 2.43 2.68 2.81 2.73 2.65 2.59 2.48 2.58 2.68 2.65 2.71 2.72 2.78 3.06 2.98 2.78 2.73 2.77 2.64 2.40 2.28 2.08 1.73 1.54 1.54 1.64 1.49 1.32 1.23 1.21 1.19 1.19 1.26 1.35 1.45
1.81 1.77 1.79 1.85 1.97 2.09 2.28 2.41 2.51 2.69 2.66 2.57 2.59 2.51 2.40 2.46 2.42 2.48 2.52 2.50 2.49 2.60 2.77 2.68 2.59 2.67 2.58 2.37 2.28 2.12 2.00 2.08 1.90 1.75 1.60 1.46 1.35 1.29 1.28 1.21 1.23 1.30 1.41
1.55 1.62 1.82 2.06 2.22 2.35 2.43 2.48 2.47 2.45 2.45 2.37 2.28 2.20 2.20 2.30 2.36 2.37 2.30 2.28 2.34 2.48 2.57 2.58 2.56 2.64 2.65 2.60 2.46 2.34 2.35 2.31 2.15 1.73 1.61 1.43 1.32 1.22 1.16 1.09 1.10 1.25 1.40
1.53 1.75 1.93 2.03 2.08 2.14 2.22 2.32 2.32 2.27 2.23 2.14 2.03 1.85 1.88 2.17 2.30 2.28 2.11 2.18 2.27 2.37 2.45 2.56 2.60 2.67 2.73 2.86 2.62 2.36 2.30 2.37 2.25 2.02 1.83 1.60 1.45 1.33 1.29 1.25 1.18 1.19 1.24
1.72 1.90 1.92 1.90 1.87 1.62 1.72 1.84 1.87 1.90 1.90 1.87 1.77 1.71 1.72 1.82 1.84 1.88 1.86 1.86 1.92 2.01 2.21 2.47 2.57 2.57 2.55 2.64 2.70 2.58 2.48 2.43 2.40 2.31 2.32 2.21 1.88 1.78 1.67 1.53 1.41 1.17 1.04
1.91 2.02 1.98 1.92 1.82 1.74 1.63 1.52 1.50 1.55 1.68 1.71 1.72 1.77 1.56 1.43 1.55 1.58 1.69 1.66 1.61 1.69 1.81 2.05 2.26 2.28 2.35 2.36 2.59 2.61 2.66 2.72 2.69 2.63 2.62 2.66 2.31 2.01 1.78 1.70 1.60 1.27 1.09
2.12 2.14 2.10 2.01 1.94 1.87 1.77 1.55 1.51 1.47 1.60 1.64 1.63 1.65 1.62 1.54 1.52 1.61 1.69 1.64 1.51 1.46 1.43 1.41 1.63 1.91 2.11 2.32 2.37 2.44 2.57 2.65 2.66 2.49 2.44 2.54 2.38 2.22 1.90 1.62 1.50 1.31 1.11
2.24 2.22 2.26 2.15 2.07 2.10 1.93 1.59 1.44 1.41 1.57 1.61 1.60 1.57 1.54 1.51 1.55 1.42 1.40 1.44 1.43 1.40 1.25 1.24 1.32 1.52 1.71 1.76 1.95 2.21 2.43 2.42 2.37 2.16 1.98 2.09 2.16 2.15 2.10 1.85 1.47 1.34 1.14
2.33 2.33 2.27 2.24 2.17 2.15 2.04 1.54 1.31 1.31 1.50 1.55 1.62 1.60 1.49 1.37 1.33 1.22 1.22 1.37 1.35 1.33 1.34 1.27 1.18 1.20 1.28 1.42 1.49 1.56 1.86 2.07 1.99 1.94 1.69 1.60 1.60 1.69 1.85 1.69 1.42 1.31 1.27